EW8756 Weather Reports


time (UTC)temp
F
wind
direction
speed
knots
gust
knots
rain 1hr
in
rain 24hr
in
rain mn
in
humidity
%
barometer
mb
20260507051600 53 208 3.5 8.7 0.00 0.00 0.00 82 1021.4
20260507050056 53 225 1.7 7.0 0.00 0.00 0.00 81 1021.4
20260507044614 53 218 3.5 8.7 0.00 0.00 0.00 81 1021.4
20260507043058 53 224 3.5 8.7 0.00 0.00 0.00 81 1021.3
20260507041602 54 258 5.2 10.4 0.00 0.00 0.00 80 1021.3
20260507034558 55 266 0.0 7.8 0.00 0.00 0.00 80 1021.1
20260507033053 55 246 2.6 5.2 0.00 0.00 0.00 79 1021.1
20260507031555 55 229 1.7 9.6 0.00 0.00 0.00 78 1020.8
20260507030054 55 238 4.3 9.6 0.00 0.00 0.00 77 1020.7
20260507024551 56 297 3.5 6.1 0.00 0.00 0.00 77 1020.7
20260507023050 56 229 1.7 4.3 0.00 0.00 0.00 76 1020.6
20260507021549 56 264 3.5 8.7 0.00 0.00 0.00 75 1020.5
20260507020100 56 208 1.7 8.7 0.00 0.00 0.00 75 1020.5
20260507014600 57 248 2.6 10.4 0.00 0.00 0.00 74 1020.5
20260507013048 57 265 7.8 13.0 0.00 0.00 0.00 73 1020.4
20260507011556 58 249 5.2 12.2 0.00 0.00 0.00 72 1020.5
20260507010047 59 231 6.1 13.0 0.00 0.00 0.00 71 1020.5
20260507004546 58 249 5.2 11.3 0.00 0.00 0.00 72 1020.6
20260507003046 57 237 6.1 13.0 0.00 0.00 0.00 73 1020.5
20260507001557 57 265 7.0 13.0 0.00 0.00 0.00 74 1020.5
20260507000046 58 260 8.7 13.9 0.00 0.00 0.00 72 1020.6
20260506234546 59 287 7.0 13.9 0.00 0.00 0.00 71 1020.6
20260506233044 59 218 2.6 7.0 0.00 0.00 0.00 71 1020.5
20260506231543 58 206 3.5 9.6 0.00 0.00 0.00 72 1020.6
20260506230047 59 248 4.3 12.2 0.00 0.00 0.00 72 1020.6
20260506224543 59 266 7.0 10.4 0.00 0.00 0.00 71 1020.7
20260506223041 58 226 3.5 13.0 0.00 0.00 0.00 72 1020.7
20260506221539 58 297 6.1 12.2 0.00 0.00 0.00 72 1020.7
20260506220042 58 225 7.0 13.0 0.00 0.00 0.00 71 1020.9
20260506214536 58 253 4.3 11.3 0.00 0.00 0.00 72 1020.9
20260506213035 58 228 2.6 9.6 0.00 0.00 0.00 74 1020.8
20260506211531 56 292 2.6 7.0 0.00 0.00 0.00 77 1021.0
20260506210030 56 226 3.5 10.4 0.00 0.00 0.00 77 1020.9
20260506204530 56 268 3.5 9.6 0.00 0.00 0.00 78 1020.9
20260506203033 56 262 3.5 12.2 0.00 0.00 0.00 79 1020.9
20260506201525 55 247 3.5 12.2 0.00 0.00 0.00 80 1020.8
20260506200025 55 220 3.5 8.7 0.00 0.00 0.00 81 1020.7
20260506194522 55 210 2.6 6.1 0.00 0.00 0.00 83 1020.7
20260506193018 54 164 1.7 8.7 0.00 0.00 0.00 84 1020.7
20260506191518 54 229 7.0 13.9 0.00 0.00 0.00 85 1020.8
20260506190021 54 242 4.3 7.0 0.00 0.00 0.00 86 1020.7
20260506184513 54 241 3.5 8.7 0.00 0.00 0.00 87 1020.8
20260506183013 53 239 3.5 8.7 0.00 0.00 0.00 87 1020.5
20260506181510 53 165 2.6 9.6 0.00 0.00 0.00 88 1020.5
20260506180009 52 205 7.0 13.9 0.00 0.00 0.00 88 1020.5
20260506174514 52 217 3.5 7.8 0.00 0.00 0.00 89 1020.5
20260506173007 52 249 5.2 10.4 0.00 0.00 0.00 90 1020.5
20260506171513 52 221 3.5 10.4 0.00 0.00 0.00 90 1020.5
20260506170004 51 246 2.6 8.7 0.00 0.00 0.00 91 1020.5
20260506164502 51 216 1.7 7.8 0.00 0.00 0.00 91 1020.3
20260506163002 51 197 1.7 4.3 0.00 0.00 0.00 91 1020.0
20260506161602 51 225 4.3 7.8 0.00 0.00 0.00 91 1020.1
20260506160104 51 247 3.5 7.0 0.00 0.00 0.00 92 1020.2
20260506154558 51 244 4.3 8.7 0.00 0.00 0.00 92 1020.0
20260506153119 51 231 3.5 6.1 0.00 0.00 0.00 92 1020.0
20260506151553 51 259 1.7 5.2 0.00 0.00 0.00 91 1020.1
20260506150052 51 276 1.7 7.8 0.00 0.00 0.00 92 1020.2
20260506144549 51 272 0.9 6.1 0.00 0.00 0.00 92 1019.7
20260506143049 51 145 2.6 7.0 0.00 0.00 0.00 92 1019.6
20260506141549 51 214 1.7 5.2 0.00 0.00 0.00 92 1019.7
20260506140046 50 192 2.6 7.0 0.00 0.00 0.00 92 1019.5
20260506134543 50 194 2.6 7.0 0.00 0.00 0.00 92 1019.7
20260506133046 51 250 2.6 7.0 0.00 0.00 0.00 92 1019.5
20260506131539 51 185 3.5 7.0 0.00 0.00 0.00 92 1019.3
20260506130039 51 241 1.7 7.0 0.00 0.00 0.00 92 1019.3
20260506124534 51 225 1.7 7.0 0.00 0.00 0.00 93 1019.2
20260506123033 51 221 1.7 6.1 0.00 0.00 0.00 93 1019.1
20260506121531 51 226 1.7 3.5 0.00 0.00 0.00 93 1019.0
20260506120031 51 212 0.0 2.6 0.00 0.00 0.00 93 1018.8
20260506114529 51 143 0.0 3.5 0.00 0.00 0.00 93 1018.8
20260506113028 51 198 0.9 3.5 0.00 0.00 0.00 92 1018.9
20260506111530 51 220 1.7 6.1 0.00 0.00 0.00 92 1018.9
20260506110024 52 258 1.7 4.3 0.00 0.00 0.00 91 1018.8
20260506104522 52 189 0.9 5.2 0.00 0.00 0.00 90 1018.6
20260506103021 52 212 0.9 6.1 0.00 0.00 0.00 90 1018.4
20260506101518 52 236 2.6 7.8 0.00 0.00 0.00 90 1018.3
20260506100016 52 243 1.7 7.8 0.00 0.00 0.00 90 1018.0
20260506094517 52 208 1.7 3.5 0.00 0.00 0.00 90 1017.9
20260506093015 52 211 1.7 5.2 0.00 0.00 0.00 91 1017.8
20260506091514 52 218 3.5 6.1 0.00 0.00 0.00 90 1017.9
20260506090144 52 237 1.7 6.1 0.00 0.00 0.00 91 1017.8
20260506083015 52 227 0.0 1.7 0.00 0.00 0.00 91 1017.8
20260506081508 52 227 0.0 1.7 0.00 0.00 0.00 90 1017.7
20260506073004 53 227 0.0 0.9 0.00 0.00 0.00 89 1017.4
20260506071600 53 251 0.0 2.6 0.00 0.00 0.00 89 1017.3
20260506061553 54 227 0.9 2.6 0.00 0.00 0.00 87 1016.7